Weather History for Saranac Lake, NY

Change the Weather History Date:

Saturday, September 6, 2014

  Actual Average Record
Temperature  
Mean Temperature 64 °F 58 °F  
Max Temperature 73 °F 70 °F 84 °F (1953)
Min Temperature 55 °F 45 °F 26 °F (2000)
Degree Days  
Heating Degree Days 1 8  
Month to date heating degree days 9 45  
Since 1 July heating degree days 288 285  
Cooling Degree Days 0 1  
Month to date cooling degree days 12 6  
Year to date cooling degree days 80 113  
Growing Degree Days 15 (Base 50)    
Moisture  
Dew Point 60 °F    
Average Humidity 85    
Maximum Humidity 97    
Minimum Humidity 73    
Precipitation  
Precipitation 0.46 in 0.11 in 2.68 in (1985)
Month to date precipitation 1.16 0.68  
Year to date precipitation 27.12 25.22  
Sea Level Pressure  
Sea Level Pressure 29.88 in    
Wind  
Wind Speed 6 mph (WSW)    
Max Wind Speed 22 mph    
Max Gust Speed 28 mph    
Visibility 7 miles    
Events Rain    
T = Trace of Precipitation, MM = Missing Value Source: NWS Daily Summary

Daily Weather History Graph

Daily Weather History Graph

Search for Another Location

Airport:

Trip Planner

Search our weather history database for the weather conditions in past years. The results will help you decide how hot, cold, wet, or windy it might be!

Date:

Astronomy

Sep. 06, 2014 Rise Set
Actual Time 6:25 AM EDT 7:24 PM EDT
Civil Twilight 5:55 AM EDT 7:53 PM EDT
Nautical Twilight 5:20 AM EDT 8:28 PM EDT
Astronomical Twilight 4:43 AM EDT 9:05 PM EDT
Moon 5:41 PM EDT (9/6) 3:19 AM EDT (9/6)
Length of Visible Light 13h 57m
Length of Day
12h 58m
Waxing Gibbous, 91% of the Moon is Illuminated
Sep 6
Waxing Gibbous
Sep 8
Full
Sep 15
Last Quarter
Sep 24
New
Oct 1
First Quarter

Hourly Weather History & Observations

Time (EDT) Temp. Dew Point Humidity Pressure Visibility Wind Dir Wind Speed Gust Speed Precip Events Conditions
12:51 AM 73.0 °F 64.0 °F 73% 29.86 in 10.0 mi SW 11.5 mph 24.2 mph N/A   Partly Cloudy
1:51 AM 73.0 °F 64.0 °F 73% 29.86 in 9.0 mi SW 12.7 mph - N/A   Clear
2:51 AM 72.0 °F 64.9 °F 78% 29.85 in 9.0 mi SW 9.2 mph - N/A   Partly Cloudy
3:40 AM 71.1 °F 64.0 °F 78% 29.90 in 9.0 mi West 6.9 mph - N/A   Mostly Cloudy
3:51 AM 71.1 °F 64.0 °F 78% 29.86 in 9.0 mi WSW 6.9 mph - N/A   Overcast
4:30 AM 69.1 °F 63.0 °F 81% 29.91 in 10.0 mi WSW 9.2 mph - N/A   Scattered Clouds
5:51 AM 66.9 °F 62.1 °F 84% 29.87 in 4.0 mi WSW 5.8 mph - 0.01 in Rain Rain
6:51 AM 64.0 °F 63.0 °F 96% 29.85 in 8.0 mi WSW 4.6 mph - 0.01 in   Mostly Cloudy
7:51 AM 66.0 °F 64.0 °F 93% 29.85 in 10.0 mi SW 4.6 mph - N/A   Mostly Cloudy
8:01 AM 66.9 °F 63.0 °F 87% 29.87 in 10.0 mi SW 6.9 mph - N/A   Mostly Cloudy
9:07 AM 68.0 °F 63.0 °F 84% 29.87 in 10.0 mi SW 10.4 mph - N/A   Overcast
9:41 AM 66.9 °F 64.0 °F 90% 29.87 in 2.5 mi SW 12.7 mph - 0.00 in Rain Light Rain
9:44 AM 66.9 °F 64.0 °F 90% 29.87 in 3.0 mi SW 8.1 mph - 0.00 in Rain Light Rain
9:51 AM 66.9 °F 64.0 °F 90% 29.83 in 6.0 mi SW 8.1 mph 17.3 mph 0.00 in   Overcast
10:24 AM 68.0 °F 63.0 °F 84% 29.85 in 10.0 mi SW 10.4 mph - N/A   Overcast
11:47 AM 68.0 °F 64.4 °F 88% 29.84 in 1.5 mi West 6.9 mph - 0.02 in Rain Rain
11:51 AM 64.9 °F 63.0 °F 93% 29.82 in 0.8 mi NW 9.2 mph - 0.06 in Rain Heavy Rain
12:03 PM 63.0 °F 61.0 °F 93% 29.85 in 1.0 mi NNW 8.1 mph - 0.07 in Rain Rain
12:24 PM 62.1 °F 61.0 °F 96% 29.85 in 2.0 mi Variable 4.6 mph - 0.11 in Rain Light Rain
12:33 PM 62.1 °F 60.1 °F 93% 29.85 in 5.0 mi NW 5.8 mph - 0.11 in Rain Light Rain
12:48 PM 62.6 °F 60.8 °F 94% 29.86 in 2.0 mi Variable 4.6 mph - 0.13 in Rain Rain
12:51 PM 62.1 °F 61.0 °F 96% 29.83 in 1.8 mi Variable 5.8 mph - 0.14 in Rain Light Rain
12:58 PM 61.0 °F 60.1 °F 97% 29.86 in 1.5 mi NNW 9.2 mph - 0.01 in Rain Rain
1:12 PM 60.1 °F 57.9 °F 93% 29.87 in 3.0 mi NW 5.8 mph - 0.03 in Rain Light Rain
1:15 PM 60.1 °F 57.9 °F 93% 29.87 in 1.8 mi Variable 4.6 mph - 0.05 in Rain Heavy Rain
2:04 PM 59.0 °F 57.0 °F 93% 29.90 in 3.0 mi North - - 0.00 in Rain Light Rain
2:24 PM 59.0 °F 57.0 °F 93% 29.90 in 5.0 mi Variable 3.5 mph - 0.01 in Rain Light Rain
2:40 PM 59.0 °F 57.0 °F 93% 29.91 in 5.0 mi Variable 3.5 mph - 0.01 in Rain Light Rain
2:51 PM 59.0 °F 57.9 °F 96% 29.89 in 5.0 mi Variable 4.6 mph - 0.02 in   Overcast
2:57 PM 59.0 °F 57.9 °F 96% 29.91 in 1.8 mi NW 3.5 mph - 0.00 in Rain Light Rain
3:14 PM 57.9 °F 55.9 °F 93% 29.91 in 2.0 mi Calm Calm - 0.01 in Rain Light Rain
3:18 PM 57.9 °F 55.9 °F 93% 29.91 in 3.0 mi Calm Calm - 0.01 in   Overcast
4:03 PM 60.1 °F 57.9 °F 93% 29.90 in 10.0 mi SW 4.6 mph - N/A   Scattered Clouds
4:14 PM 60.1 °F 57.9 °F 93% 29.91 in 10.0 mi WSW 8.1 mph - N/A   Mostly Cloudy
5:00 PM 61.0 °F 59.0 °F 93% 29.91 in 10.0 mi WSW 6.9 mph - N/A   Scattered Clouds
5:13 PM 61.0 °F 57.9 °F 90% 29.91 in 10.0 mi WSW 5.8 mph - N/A   Mostly Cloudy
5:20 PM 61.0 °F 59.0 °F 93% 29.91 in 10.0 mi WSW 5.8 mph - N/A   Mostly Cloudy
5:51 PM 61.0 °F 57.9 °F 90% 29.90 in 10.0 mi WSW 3.5 mph - N/A   Overcast
6:03 PM 61.0 °F 57.9 °F 90% 29.91 in 10.0 mi WSW 4.6 mph - N/A   Overcast
6:11 PM 61.0 °F 57.9 °F 90% 29.91 in 10.0 mi SW 5.8 mph - N/A   Overcast
6:19 PM 61.0 °F 57.9 °F 90% 29.91 in 10.0 mi WSW 4.6 mph - N/A   Overcast
6:31 PM 61.0 °F 57.9 °F 90% 29.91 in 10.0 mi WSW 3.5 mph - N/A   Mostly Cloudy
6:51 PM 61.0 °F 59.0 °F 93% 29.90 in 10.0 mi Calm Calm - N/A   Overcast
7:51 PM 60.1 °F 59.0 °F 96% 29.91 in 6.0 mi Calm Calm - 0.01 in Rain Light Rain
8:51 PM 60.1 °F 57.9 °F 93% 29.94 in 10.0 mi Calm Calm - 0.01 in   Overcast
9:51 PM 60.1 °F 55.9 °F 86% 29.96 in 10.0 mi Variable 4.6 mph - N/A   Overcast
11:51 PM 55.9 °F 54.0 °F 93% 29.98 in 10.0 mi Calm Calm - N/A   Overcast